• In Belgium
  • List of Countries
  • For 7 days
  • Water Temperature
  • Satellite Maps
  • Weather Map
  • Weather Widgets
  • user-avatar
    Login

    Hourly Weather Darwin

    Today, 20 October, Friday

    Time Temperature Precipitation Wind Pressure Humidity
    00:00 +30°C° 0 mm 1 mps 757 mmHg 70%
    01:00 +30°C° 0 mm 1 mps 757 mmHg 71%
    02:00 +30°C° 0 mm 1 mps 757 mmHg 72%
    03:00 +29°C° 0 mm 2 mps 757 mmHg 74%
    04:00 +29°C° 0.1 mm 2 mps 757 mmHg 74%
    05:00 +29°C° 0.1 mm 2 mps 758 mmHg 75%
    06:00 +29°C° 0.1 mm 2 mps 758 mmHg 76%
    07:00 +31°C° 0 mm 2 mps 758 mmHg 66%
    08:00 +34°C° 0 mm 2 mps 759 mmHg 55%
    09:00 +35°C° 0 mm 1 mps 759 mmHg 44%
    10:00 +37°C° 0 mm 1 mps 759 mmHg 39%
    11:00 +40°C° 0 mm 1 mps 758 mmHg 34%
    12:00 +42°C° 0 mm 1 mps 758 mmHg 29%
    13:00 +40°C° 0 mm 2 mps 758 mmHg 33%
    14:00 +38°C° 0 mm 3 mps 757 mmHg 38%
    15:00 +37°C° 0 mm 3 mps 757 mmHg 43%
    16:00 +36°C° 0.1 mm 3 mps 757 mmHg 47%
    17:00 +35°C° 0.1 mm 3 mps 757 mmHg 52%
    18:00 +34°C° 0.1 mm 3 mps 757 mmHg 56%
    19:00 +34°C° 0.2 mm 3 mps 757 mmHg 58%
    20:00 +33°C° 0.2 mm 3 mps 757 mmHg 61%
    21:00 +32°C° 0 mm 2 mps 758 mmHg 63%
    22:00 +31°C° 0.3 mm 3 mps 758 mmHg 64%
    23:00 +31°C° 0.3 mm 3 mps 758 mmHg 66%

    Tomorrow, 21 October, Saturday

    Time Temperature Precipitation Wind Pressure Humidity
    00:00 +30°C° 0.3 mm 3 mps 758 mmHg 67%
    01:00 +30°C° 0 mm 3 mps 758 mmHg 69%
    02:00 +30°C° 0 mm 2 mps 758 mmHg 70%
    03:00 +30°C° 0 mm 2 mps 758 mmHg 71%
    04:00 +29°C° 0.2 mm 2 mps 758 mmHg 72%
    05:00 +29°C° 0.2 mm 1 mps 758 mmHg 73%
    06:00 +29°C° 0.2 mm 1 mps 758 mmHg 74%
    07:00 +31°C° 0.5 mm 1 mps 758 mmHg 66%
    08:00 +33°C° 0.5 mm 1 mps 759 mmHg 59%
    09:00 +35°C° 0.5 mm 1 mps 759 mmHg 51%
    10:00 +35°C° 0.1 mm 1 mps 759 mmHg 49%
    11:00 +37°C° 0.1 mm 2 mps 759 mmHg 47%
    12:00 +37°C° 0.1 mm 2 mps 758 mmHg 45%
    13:00 +36°C° 1.1 mm 3 mps 758 mmHg 50%
    14:00 +35°C° 1.1 mm 3 mps 757 mmHg 55%
    15:00 +33°C° 1.1 mm 3 mps 757 mmHg 61%
    16:00 +34°C° 0.1 mm 3 mps 757 mmHg 60%
    17:00 +34°C° 0.1 mm 3 mps 757 mmHg 60%
    18:00 +34°C° 0.1 mm 3 mps 757 mmHg 60%
    19:00 +33°C° 0.3 mm 3 mps 757 mmHg 63%
    20:00 +31°C° 0.3 mm 3 mps 757 mmHg 67%
    21:00 +31°C° 0.3 mm 3 mps 757 mmHg 71%
    22:00 +30°C° 0.1 mm 3 mps 757 mmHg 71%
    23:00 +30°C° 0.1 mm 3 mps 757 mmHg 71%

    Day after tomorrow, 22 October, Sunday

    Time Temperature Precipitation Wind Pressure Humidity
    00:00 +30°C° 0.1 mm 3 mps 757 mmHg 72%
    01:00 +30°C° 0.7 mm 3 mps 757 mmHg 74%
    02:00 +29°C° 0.7 mm 2 mps 757 mmHg 76%
    03:00 +29°C° 0.7 mm 2 mps 757 mmHg 79%
    04:00 +29°C° 0.5 mm 2 mps 757 mmHg 78%
    05:00 +29°C° 0.5 mm 2 mps 757 mmHg 78%
    06:00 +29°C° 0.5 mm 1 mps 757 mmHg 77%
    07:00 +31°C° 0 mm 1 mps 758 mmHg 69%
    08:00 +32°C° 0 mm 1 mps 758 mmHg 60%
    09:00 +34°C° 0 mm 1 mps 758 mmHg 52%
    10:00 +36°C° 0 mm 2 mps 758 mmHg 48%
    11:00 +37°C° 0 mm 2 mps 757 mmHg 43%
    12:00 +38°C° 0 mm 3 mps 757 mmHg 39%
    13:00 +38°C° 0 mm 3 mps 756 mmHg 40%
    14:00 +38°C° 0 mm 3 mps 756 mmHg 42%
    15:00 +37°C° 0 mm 3 mps 755 mmHg 44%
    16:00 +37°C° 0 mm 3 mps 755 mmHg 47%
    17:00 +36°C° 0 mm 3 mps 755 mmHg 49%
    18:00 +35°C° 0 mm 2 mps 756 mmHg 52%
    19:00 +34°C° 0 mm 3 mps 756 mmHg 56%
    20:00 +34°C° 0 mm 3 mps 757 mmHg 60%
    21:00 +33°C° 0 mm 3 mps 757 mmHg 64%
    22:00 +31°C° 0.2 mm 3 mps 757 mmHg 67%
    23:00 +31°C° 0.2 mm 3 mps 757 mmHg 70%

    23 October, Monday

    Time Temperature Precipitation Wind Pressure Humidity
    00:00 +30°C° 0.2 mm 3 mps 757 mmHg 73%
    01:00 +30°C° 0.7 mm 3 mps 757 mmHg 75%
    02:00 +29°C° 0.7 mm 2 mps 757 mmHg 78%
    03:00 +29°C° 0.7 mm 2 mps 757 mmHg 80%
    04:00 +29°C° 0.4 mm 2 mps 757 mmHg 81%
    05:00 +29°C° 0.4 mm 2 mps 757 mmHg 81%
    06:00 +29°C° 0.4 mm 2 mps 758 mmHg 82%
    07:00 +30°C° 0.3 mm 1 mps 758 mmHg 73%
    08:00 +32°C° 0.3 mm 1 mps 759 mmHg 64%
    09:00 +34°C° 0.3 mm 1 mps 759 mmHg 55%
    10:00 +35°C° 0 mm 1 mps 759 mmHg 50%
    11:00 +38°C° 0 mm 2 mps 759 mmHg 44%
    12:00 +39°C° 0 mm 2 mps 758 mmHg 39%
    13:00 +38°C° 0 mm 2 mps 758 mmHg 41%
    14:00 +38°C° 0 mm 2 mps 757 mmHg 42%
    15:00 +37°C° 0 mm 2 mps 756 mmHg 44%
    16:00 +36°C° 0 mm 2 mps 757 mmHg 46%
    17:00 +36°C° 0 mm 2 mps 757 mmHg 49%
    18:00 +35°C° 0 mm 3 mps 757 mmHg 52%
    19:00 +34°C° 0 mm 3 mps 757 mmHg 57%
    20:00 +33°C° 0 mm 3 mps 758 mmHg 62%
    21:00 +33°C° 0 mm 4 mps 758 mmHg 66%
    22:00 +31°C° 0 mm 3 mps 758 mmHg 68%
    23:00 +31°C° 0 mm 3 mps 758 mmHg 70%

    24 October, Tuesday

    Time Temperature Precipitation Wind Pressure Humidity
    00:00 +30°C° 0 mm 3 mps 758 mmHg 73%
    01:00 +30°C° 0.2 mm 3 mps 758 mmHg 74%
    02:00 +30°C° 0.2 mm 2 mps 758 mmHg 75%
    03:00 +30°C° 0.2 mm 1 mps 757 mmHg 77%
    04:00 +29°C° 0.6 mm 2 mps 758 mmHg 78%
    05:00 +29°C° 0.6 mm 2 mps 759 mmHg 80%
    06:00 +29°C° 0.6 mm 2 mps 759 mmHg 81%
    07:00 +31°C° 0 mm 1 mps 760 mmHg 71%
    08:00 +33°C° 0 mm 1 mps 760 mmHg 61%
    09:00 +35°C° 0 mm 1 mps 761 mmHg 51%
    10:00 +36°C° 0 mm 1 mps 760 mmHg 46%
    11:00 +39°C° 0 mm 2 mps 760 mmHg 42%
    12:00 +40°C° 0 mm 2 mps 759 mmHg 37%
    13:00 +39°C° 0 mm 2 mps 759 mmHg 39%
    14:00 +38°C° 0 mm 3 mps 758 mmHg 41%
    15:00 +38°C° 0 mm 3 mps 757 mmHg 42%
    16:00 +37°C° 0 mm 3 mps 757 mmHg 45%
    17:00 +36°C° 0 mm 3 mps 757 mmHg 48%
    18:00 +35°C° 0 mm 3 mps 757 mmHg 51%
    19:00 +34°C° 0.1 mm 3 mps 758 mmHg 56%
    20:00 +33°C° 0.1 mm 4 mps 758 mmHg 61%
    21:00 +32°C° 0.1 mm 4 mps 759 mmHg 66%
    22:00 +31°C° 0 mm 3 mps 759 mmHg 68%
    23:00 +31°C° 0 mm 2 mps 759 mmHg 69%

    25 October, Wednesday

    Time Temperature Precipitation Wind Pressure Humidity
    00:00 +30°C° 0 mm 2 mps 758 mmHg 70%
    01:00 +30°C° 0 mm 2 mps 758 mmHg 72%
    02:00 +30°C° 0 mm 2 mps 758 mmHg 73%
    03:00 +30°C° 0 mm 2 mps 758 mmHg 74%
    04:00 +29°C° 0 mm 2 mps 759 mmHg 75%
    05:00 +29°C° 0 mm 2 mps 759 mmHg 76%
    06:00 +29°C° 0 mm 1 mps 760 mmHg 77%
    07:00 +31°C° 0 mm 1 mps 760 mmHg 68%
    08:00 +33°C° 0 mm 1 mps 761 mmHg 60%
    09:00 +35°C° 0 mm 1 mps 761 mmHg 51%
    10:00 +36°C° 0.1 mm 2 mps 761 mmHg 48%
    11:00 +37°C° 0.1 mm 2 mps 760 mmHg 44%
    12:00 +38°C° 0.1 mm 3 mps 760 mmHg 40%
    13:00 +38°C° 0 mm 3 mps 759 mmHg 39%
    14:00 +39°C° 0 mm 3 mps 758 mmHg 38%
    15:00 +39°C° 0 mm 3 mps 757 mmHg 37%
    16:00 +37°C° 0.1 mm 3 mps 757 mmHg 42%
    17:00 +36°C° 0.1 mm 4 mps 757 mmHg 47%
    18:00 +35°C° 0.1 mm 4 mps 758 mmHg 52%
    19:00 +34°C° 0 mm 3 mps 758 mmHg 57%
    20:00 +33°C° 0 mm 3 mps 758 mmHg 63%
    21:00 +31°C° 0 mm 3 mps 759 mmHg 68%
    22:00 +31°C° 0 mm 3 mps 759 mmHg 70%
    23:00 +31°C° 0 mm 2 mps 759 mmHg 72%
    Show more